Regional Weather Roundup
Issued by NWS Sterling, VA

Home | Current Version | Previous Version | Text Only | Print | Product List | Glossary Off
Versions: 1 2 3 4 5 6 7 8 9 10 11 12 13 14 15 16 17 18 19 20 21 22 23 24 25 26 27 28

000
ASUS41 KLWX 191611
RWRLWX

REGIONAL WEATHER ROUNDUP
NATIONAL WEATHER SERVICE BALTIMORE MD/WASHINGTON DC
1100 AM EST FRI JAN 19 2018

Note: "FAIR" indicates few or no clouds below 12,000 feet
with no significant weather and/or obstructions to visibility.
 TC=TEMPERATURE CELSIUS

 * =Non NWS site. Station does not report precipitation (e.g. rain,
    snow, etc.), thunder, or fog.

DCZ001-MDZ009-015-VAZ040>042-051-053>054-191700-
WASHINGTON METRO

CITY           SKY/WX    TMP DP  RH WIND       PRES   REMARKS
WASHINGTON NAT FAIR      47  15  27 W10       30.15S
DULLES         PTSUNNY   45  14  28 N6        30.13F
ANDREWS AFB    FAIR      46  13  26 W13G18    30.13S
FT BELVOIR     FAIR      47  17  29 CALM      30.14F
QUANTICO       MOSUNNY   34  27  75 S6        30.17S WCI  29
COLLEGE PARK*  FAIR      44  12  27 SW7       30.14S
LEESBURG*      FAIR      45  19  36 W3        30.13F
MANASSAS*      FAIR      41  21  44 S5        30.14F
GAITHERSBURG*  FAIR      44  15  31 W12       30.12F

$$

MDZ006>007-011-014-191700-
BALTIMORE METRO

CITY           SKY/WX    TMP DP  RH WIND       PRES   REMARKS
BWI AIRPORT    PTSUNNY   43  15  32 W13       30.13S
MD SCIENCE CTR   N/A     45  14  28 MISG      30.13S
MARTIN STATE   MOSUNNY   43  19  39 W8        30.15S
ANNAPOLIS      FAIR      46  15  28 W10       30.14F
FORT MEADE*    FAIR      43  18  36 W10       30.16F

$$

MDZ012-015-019>023-191700-
MARYLAND EASTERN SHORE

CITY           SKY/WX    TMP DP  RH WIND       PRES   REMARKS
OCEAN CITY     FAIR      42  21  43 NW6       30.16S
SALISBURY      FAIR      42  19  39 NW3       30.16S
BAY BRIDGE AP* FAIR      41  21  45 W8        30.15S
CAMBRIDGE*     SUNNY     41  16  36 N6        30.16F
EASTON*        SUNNY     45  18  33 NW8       30.19R

$$

MDZ017>025-191700-
SOUTHERN MARYLAND

CITY           SKY/WX    TMP DP  RH WIND       PRES   REMARKS
PATUXENT RIVER NOT AVBL
ST INIGOES     FAIR      40  19  43 CALM      30.15F
LEONARDTOWN*   FAIR      45  16  31 CALM      30.16F

$$

MDZ003>005-191700-
NORTH CENTRAL MARYLAND

CITY           SKY/WX    TMP DP  RH WIND       PRES   REMARKS
FREDERICK*     SUNNY     43   5  21 W7        30.16S
HAGERSTOWN APT FAIR      38  14  37 W9G18     30.10F WCI  31
WESTMINSTER*   FAIR      37  16  41 W10G18    30.09F WCI  30

$$

MDZ501>502-191700-
WESTERN MARYLAND

CITY           SKY/WX    TMP DP  RH WIND       PRES   REMARKS
OAKLAND*       FAIR      28  10  47 SW9G18    30.04S WCI  20
CUMBERLAND*    FAIR      43  14  31 S8        30.16F

$$

VAZ025>031-191700-
SHENANDOAH VALLEY

CITY           SKY/WX    TMP DP  RH WIND       PRES   REMARKS
WINCHESTER*    FAIR      45  12  26 W14G21    30.11F
FRONT ROYAL*   FAIR      45   9  23 MISG      30.11F
LURAY*         FAIR      45   9  23 SW9       30.12F
NEW MARKET*    FAIR      44   8  23 SW7       30.12F
STAUNTON*      FAIR      43   3  19 S6        30.16R
WAYNESBORO*    FAIR      41   1  18 SW8       30.14R

$$

WVZ021-048>050-054>055-191700-
EASTERN WEST VIRGINIA PANHANDLE

CITY           SKY/WX    TMP DP  RH WIND       PRES   REMARKS
MARTINSBURG    FAIR      42  13  30 W13       30.10F
PETERSBURG*    FAIR      45  13  28 W8        30.11F

$$

VAZ036>039-050-191700-
CENTRAL FOOTHILLS

CITY           SKY/WX    TMP DP  RH WIND       PRES   REMARKS
CHARLOTTESVILL FAIR      49   0  13 S10       30.14S
CULPEPER*      FAIR      46  10  23 S5        30.15S
ORANGE*        FAIR      48   9  20 SW10      30.13F
GORDONSVILLE*  FAIR      47   9  21 SW7       30.14S
WARRENTON*     FAIR      46   6  19 S3        30.13F

$$

VAZ055>057-191700-
NORTH AND CENTRAL PIEDMONT

CITY           SKY/WX    TMP DP  RH WIND       PRES   REMARKS
FREDERICKSBRG* FAIR      39  17  41 CALM      30.16S
STAFFORD*      FAIR      43  15  32 CALM      30.20S

$$

NCZ024-NYZ072-PAZ021-071-VAZ022-071-191700-
OTHER REGIONAL OBSERVATIONS

CITY           SKY/WX    TMP DP  RH WIND       PRES   REMARKS
NEW YORK CITY  FAIR      32  14  47 W8        30.09F WCI  25
PHILADELPHIA   PTSUNNY   39  14  36 W12       30.12F WCI  32
PITTSBURGH     FAIR      29  13  51 SW10      30.09F WCI  20
ROANOKE        FAIR      41   6  23 W9        30.21S
RICHMOND       FAIR      46  10  23 W9        30.16S
RALEIGH        FAIR      38  21  50 SW3       30.24S

$$

ANZ530>537-191700-
MARINE OBSERVATIONS

STATION/POSITION TIME  TEMP    WIND        PRES
                       AIR SEA DIR/SP/G
                 (UTC) (F)     (DEG/KT/KT) (MB)
THOMAS PT LIGHT  1600   37 32  200/  5/  5   N/A
BALT KEY BRIDGE  1548   40     260/ 13/ 15 1020.4F
COVE POINT       1548   34     130/  1/  3 1022.1R
LEWISETTA        1548   39 31  270/  2/  3 1021.4F
SOLOMONS ISLAND  1548   39 34  240/  2/  4 1020.9F
PINEY POINT      1548           20/  1/  2   N/A

$$





USA.gov is the U.S. government's official web portal to all federal, state and local government web resources and services.